Rodez, France

12:59 PM CEST on March 26, 2017 (GMT +0200)
Marcillac

Weather History for LFCR - January, 2013

Change the Weather History Date:

Friday, January 18, 2013

  Actual Average Record
Temperature  
Mean Temperature 20 °F -  
Max Temperature 35 °F - - ()
Min Temperature 5 °F - - ()
Degree Days  
Heating Degree Days 45    
Moisture  
Dew Point 19 °F    
Average Humidity 85    
Maximum Humidity 100    
Minimum Humidity 60    
Precipitation  
Precipitation 0.00 in - - ()
Sea Level Pressure  
Sea Level Pressure 29.59 in    
Wind  
Wind Speed 2 mph ()    
Max Wind Speed 7 mph    
Max Gust Speed -    
Visibility 3.9 miles    
Events Rain , Snow    
T = Trace of Precipitation, MM = Missing Value Source: Averaged Metar Reports

Daily Weather History Graph

Daily Weather History Graph

Search for Another Location

Airport or City:

Trip Planner

Search our weather history database for the weather conditions in past years. The results will help you decide how hot, cold, wet, or windy it might be!

Date:

Astronomy

Jan. 18, 2013 Rise Set
Actual Time 8:21 AM CET 5:40 PM CET
Civil Twilight 7:48 AM CET 6:12 PM CET
Nautical Twilight 7:13 AM CET 6:48 PM CET
Astronomical Twilight 6:38 AM CET 7:23 PM CET
Moon 11:32 AM CET (1/18) 12:33 AM CET (1/18)
Length of Visible Light 10h 23m
Length of Day
9h 19m
Waxing Crescent, 45% of the Moon is Illuminated
Jan 18
Waxing Crescent
Jan 19
First Quarter
Jan 27
Full
Feb 3
Last Quarter
Feb 10
New

Hourly Weather History & Observations

Time (CET) Temp. Windchill Dew Point Humidity Pressure Visibility Wind Dir Wind Speed Gust Speed Precip Events Conditions
12:00 AM 6.8 °F - 3.2 °F 85% 29.83 in 0.0 mi Calm Calm - N/A   Unknown
12:30 AM 5.0 °F - 1.4 °F 85% 29.83 in 1.3 mi South 1.2 mph - N/A   Overcast
1:00 AM 5.0 °F - 1.4 °F 85% 29.80 in 2.5 mi Calm Calm - N/A   Unknown
1:30 AM 5.0 °F - 1.4 °F 85% 29.80 in - Calm Calm - N/A   Unknown
2:00 AM 8.6 °F - 6.8 °F 92% 29.80 in - East 2.3 mph - N/A   Unknown
2:30 AM 6.8 °F - 3.2 °F 85% 29.77 in 0.1 mi Calm Calm - N/A   Unknown
3:00 AM 6.8 °F - 5.0 °F 92% 29.77 in 0.7 mi Calm Calm - N/A   Unknown
3:30 AM 8.6 °F - 5.0 °F 85% 29.74 in - Variable 2.3 mph - N/A   Unknown
4:00 AM 8.6 °F - 6.8 °F 92% 29.74 in - Calm Calm - N/A   Unknown
4:30 AM 12.2 °F - 8.6 °F 85% 29.71 in 3.1 mi ESE 2.3 mph - N/A   Unknown
5:00 AM 10.4 °F 4.0 °F 6.8 °F 85% 29.71 in 3.1 mi Variable 3.5 mph - N/A   Unknown
5:30 AM 10.4 °F - 8.6 °F 92% 29.71 in 3.7 mi Calm Calm - N/A   Unknown
6:00 AM 12.2 °F 4.3 °F 10.4 °F 92% 29.68 in 3.7 mi East 4.6 mph - N/A   Unknown
6:30 AM 12.2 °F - 10.4 °F 92% 29.68 in 3.1 mi ESE 1.2 mph - N/A   Mist
7:00 AM 14.0 °F - 10.4 °F 86% 29.68 in 3.7 mi SE 2.3 mph - N/A   Unknown
7:30 AM 15.8 °F - 14.0 °F 93% 29.68 in 3.7 mi ESE 2.3 mph - N/A   Unknown
8:00 AM 15.8 °F - 14.0 °F 93% 29.68 in 3.7 mi SSE 1.2 mph - N/A   Unknown
8:30 AM 15.8 °F - 14.0 °F 93% 29.68 in 4.3 mi ESE 2.3 mph - N/A   Unknown
9:00 AM 17.6 °F - 14.0 °F 86% 29.65 in 4.3 mi East 2.3 mph - N/A   Unknown
9:30 AM 17.6 °F - 15.8 °F 93% 29.65 in 4.3 mi SSE 2.3 mph - N/A   Unknown
10:00 AM 19.4 °F - 15.8 °F 86% 29.65 in 3.1 mi Variable 1.2 mph - N/A   Mist
10:30 AM 21.2 °F 16.4 °F 17.6 °F 86% 29.65 in 4.3 mi ESE 3.5 mph - N/A   Unknown
11:00 AM 23.0 °F - 19.4 °F 86% 29.65 in 4.3 mi Variable 2.3 mph - N/A   Unknown
11:30 AM 24.8 °F 20.5 °F 21.2 °F 86% 29.62 in 4.3 mi ESE 3.5 mph - N/A   Mostly Cloudy
12:00 PM 26.6 °F 22.6 °F 21.2 °F 80% 29.59 in 4.3 mi ESE 3.5 mph - N/A   Mostly Cloudy
12:30 PM 28.4 °F 24.6 °F 19.4 °F 69% 29.59 in 6.2 mi ESE 3.5 mph - N/A   Mostly Cloudy
1:00 PM 30.2 °F - 21.2 °F 69% 29.59 in 6.2 mi East 2.3 mph - N/A   Overcast
1:30 PM 32.0 °F 28.7 °F 21.2 °F 64% 29.56 in 6.2 mi East 3.5 mph - N/A   Overcast
2:00 PM 32.0 °F 28.7 °F 23.0 °F 69% 29.56 in 6.2 mi ESE 3.5 mph - N/A   Overcast
2:30 PM 33.8 °F 28.6 °F 23.0 °F 65% 29.53 in 6.2 mi East 5.8 mph - N/A   Overcast
3:00 PM 33.8 °F 27.7 °F 21.2 °F 60% 29.53 in 6.2 mi ESE 6.9 mph - N/A   Overcast
3:30 PM 33.8 °F 30.8 °F 23.0 °F 65% 29.50 in 6.2 mi Variable 3.5 mph - N/A   Overcast
4:00 PM 33.8 °F 29.6 °F 24.8 °F 70% 29.50 in 6.2 mi SE 4.6 mph - N/A   Overcast
4:30 PM 35.6 °F 30.7 °F 26.6 °F 70% 29.47 in 6.2 mi ESE 5.8 mph - N/A   Overcast
5:00 PM 35.6 °F 31.7 °F 26.6 °F 70% 29.47 in 6.2 mi ESE 4.6 mph - N/A   Overcast
5:30 PM 33.8 °F 28.6 °F 28.4 °F 81% 29.47 in 3.1 mi East 5.8 mph - N/A   Light Drizzle
6:00 PM 33.8 °F 29.6 °F 30.2 °F 87% 29.44 in 1.2 mi East 4.6 mph - N/A Rain Light Rain
6:30 PM 33.8 °F 27.7 °F 32.0 °F 93% 29.44 in 1.6 mi SE 6.9 mph - N/A Rain Light Rain
7:00 PM 33.8 °F 28.6 °F 32.0 °F 93% 29.44 in 1.2 mi ESE 5.8 mph - N/A Rain Rain
7:30 PM 33.8 °F 27.7 °F 33.8 °F 100% 29.42 in - East 6.9 mph - N/A Rain Light Rain
8:00 PM 33.8 °F 28.6 °F 32.0 °F 93% 29.42 in - SE 5.8 mph - N/A Rain Rain
8:30 PM 33.8 °F 30.8 °F 33.8 °F 100% 29.42 in - ESE 3.5 mph - N/A Snow Light Snow
9:00 PM 33.8 °F 28.6 °F 33.8 °F 100% 29.42 in 2.2 mi East 5.8 mph - N/A Snow Light Snow
9:30 PM 35.6 °F 31.7 °F 33.8 °F 93% 29.39 in 3.1 mi ESE 4.6 mph - N/A Snow Light Snow
10:00 PM 33.8 °F 30.8 °F 33.8 °F 100% 29.39 in 3.7 mi ESE 3.5 mph - N/A Snow Light Snow
10:30 PM 35.6 °F 29.9 °F 33.8 °F 93% 29.36 in 6.2 mi ESE 6.9 mph - N/A Rain , Snow Light Snow
11:00 PM 35.6 °F 29.9 °F 33.8 °F 93% 29.36 in 5.6 mi East 6.9 mph - N/A Rain Rain
11:30 PM 35.6 °F 31.7 °F 33.8 °F 93% 29.36 in 5.0 mi East 4.6 mph - N/A Rain Rain